Change the Weather History Date:

Tuesday, March 4, 2014

  Actual Average Record
Temperature  
Mean Temperature 22 °F 19 °F  
Max Temperature 37 °F 33 °F 40 °F (2010)
Min Temperature 6 °F 6 °F -11 °F (2013)
Degree Days  
Heating Degree Days 43 46  
Month to date heating degree days 176 185  
Since 1 July heating degree days 8229 8122  
Cooling Degree Days 0 0  
Month to date cooling degree days 0 0  
Year to date cooling degree days 0 0  
Moisture  
Dew Point 17 °F    
Average Humidity 65    
Maximum Humidity 92    
Minimum Humidity 38    
Precipitation  
Precipitation 0.07 in 0.03 in 0.49 in (2009)
Month to date precipitation 0.60 0.12  
Year to date precipitation 5.68 3.64  
Sea Level Pressure  
Sea Level Pressure 29.99 in    
Wind  
Wind Speed 4 mph (WNW)    
Max Wind Speed 14 mph    
Max Gust Speed 22 mph    
T = Trace of Precipitation, MM = Missing Value Source: NWS Daily Summary

Daily Weather History Graph

Daily Weather History Graph

Search for Another Location

Airport or City:

Trip Planner

Search our weather history database for the weather conditions in past years. The results will help you decide how hot, cold, wet, or windy it might be!

Date:

Astronomy

Mar. 04, 2014 Rise Set
Actual Time 6:53 AM MST 6:13 PM MST
Civil Twilight 6:24 AM MST 6:42 PM MST
Nautical Twilight 5:50 AM MST 7:16 PM MST
Astronomical Twilight 5:17 AM MST 7:50 PM MST
Moon 8:32 AM MST (3/4) 10:35 PM MST (3/4)
Length of Visible Light 12h 18m
Length of Day
11h 19m
Waxing Crescent, 15% of the Moon is Illuminated
Mar 4
Waxing Crescent
Mar 8
First Quarter
Mar 16
Full
Mar 23
Last Quarter
Mar 30
New

Hourly Weather History & Observations

Time (MST) Temp. Windchill Dew Point Humidity Pressure Visibility Wind Dir Wind Speed Gust Speed Precip Events Conditions
12:56 AM 30.0 °F 24.1 °F 27.0 °F 88% 29.87 in - Variable 5.8 mph - 0.01 in   Unknown
1:56 AM 30.0 °F 24.1 °F 27.0 °F 88% 29.88 in - Variable 5.8 mph - N/A   Unknown
2:56 AM 30.0 °F - 27.0 °F 88% 29.85 in - Calm Calm - N/A   Unknown
3:56 AM 30.0 °F 26.5 °F 26.1 °F 85% 29.86 in - WNW 3.5 mph - N/A   Unknown
4:56 AM 28.0 °F 20.0 °F 24.1 °F 85% 29.90 in - West 8.1 mph - 0.05 in   Unknown
5:56 AM 25.0 °F 20.7 °F 21.9 °F 88% 29.92 in - Variable 3.5 mph - 0.01 in   Unknown
6:56 AM 21.9 °F - 19.0 °F 89% 29.96 in - Calm Calm - N/A   Unknown
7:56 AM 21.9 °F - 19.9 °F 92% 29.98 in - Calm Calm - N/A   Unknown
8:56 AM 25.0 °F - 21.9 °F 88% 29.97 in - Calm Calm - N/A   Unknown
9:56 AM 30.0 °F 24.1 °F 19.0 °F 64% 29.96 in - Variable 5.8 mph - N/A   Unknown
10:56 AM 32.0 °F 26.4 °F 17.1 °F 54% 29.96 in - Variable 5.8 mph - N/A   Unknown
11:56 AM 33.1 °F 26.1 °F 15.1 °F 48% 29.95 in - NW 8.1 mph - N/A   Unknown
12:56 PM 36.0 °F 29.0 °F 15.1 °F 43% 29.93 in - West 9.2 mph - N/A   Unknown
1:56 PM 36.0 °F 29.0 °F 12.0 °F 37% 29.92 in - West 9.2 mph - N/A   Unknown
2:56 PM 33.1 °F 26.1 °F 15.1 °F 48% 29.95 in - WNW 8.1 mph - N/A   Unknown
3:56 PM 33.1 °F 24.9 °F 12.9 °F 43% 29.97 in - WNW 10.4 mph 19.6 mph N/A   Unknown
4:56 PM 32.0 °F 24.8 °F 14.0 °F 48% 30.00 in - West 8.1 mph 18.4 mph N/A   Unknown
5:56 PM 28.0 °F 22.8 °F 16.0 °F 61% 30.04 in - Variable 4.6 mph - N/A   Unknown
6:56 PM 24.1 °F 19.7 °F 16.0 °F 71% 30.10 in - WNW 3.5 mph - N/A   Unknown
7:56 PM 19.0 °F - 15.1 °F 85% 30.14 in - Calm Calm - N/A   Unknown
8:56 PM 16.0 °F - 12.9 °F 88% 30.16 in - Calm Calm - N/A   Unknown
9:56 PM 12.9 °F - 10.0 °F 88% 30.16 in - Calm Calm - N/A   Unknown
10:56 PM 10.9 °F - 7.0 °F 84% 30.17 in - Calm Calm - N/A   Unknown
11:56 PM 9.0 °F - 5.0 °F 84% 30.19 in - Calm Calm - N/A   Unknown